EW7460 Weather Reports


time (UTC)temp
C
wind
direction
speed
KPH
gust
KPH
rain 1hr
cm
rain 24hr
cm
rain mn
cm
humidity
%
barometer
mb
20260507162236 12 139 1.6 3.2 0.00 0.38 0.36 77 1012.7
20260507161733 11 125 1.6 3.2 0.00 0.38 0.36 79 1012.7
20260507161233 11 169 1.6 3.2 0.00 0.38 0.36 79 1012.9
20260507160739 11 111 1.6 3.2 0.00 0.38 0.36 77 1012.8
20260507160231 11 107 1.6 3.2 0.00 0.38 0.36 79 1012.7
20260507155731 12 126 0.0 3.2 0.00 0.38 0.36 81 1012.6
20260507155456 11 85 0.0 3.2 0.00 0.38 0.36 79 1012.5
20260507154731 11 75 0.0 3.2 0.00 0.38 0.36 78 1012.5
20260507154451 12 53 0.0 3.2 0.00 0.38 0.36 80 1012.5
20260507153731 11 59 0.0 3.2 0.00 0.38 0.36 79 1012.7
20260507153225 11 57 0.0 3.2 0.00 0.38 0.36 77 1012.8
20260507152725 12 53 0.0 3.2 0.00 0.38 0.36 78 1012.6
20260507152224 12 59 0.0 3.2 0.00 0.38 0.36 77 1012.6
20260507151730 12 59 0.0 3.2 0.00 0.38 0.36 78 1012.6
20260507151220 11 55 0.0 3.2 0.00 0.38 0.36 77 1012.8
20260507150949 11 44 0.0 3.2 0.00 0.38 0.36 72 1012.8
20260507150220 12 17 0.0 3.2 0.00 0.38 0.36 72 1012.9
20260507145721 12 56 0.0 3.2 0.00 0.38 0.36 75 1012.6
20260507145221 12 13 0.0 6.4 0.00 0.38 0.36 73 1012.8
20260507144719 12 13 1.6 4.8 0.00 0.38 0.36 72 1012.8
20260507144438 12 23 1.6 6.4 0.00 0.38 0.36 71 1012.9
20260507143719 12 19 1.6 4.8 0.00 0.38 0.36 73 1012.9
20260507143219 12 60 1.6 4.8 0.00 0.38 0.36 74 1013.0
20260507142938 12 30 1.6 4.8 0.00 0.41 0.36 73 1013.3
20260507142438 12 51 0.0 4.8 0.00 0.41 0.36 74 1013.3
20260507141718 12 11 0.0 4.8 0.00 0.41 0.36 74 1013.3
20260507141440 12 19 0.0 4.8 0.00 0.41 0.36 79 1013.5
20260507140719 12 19 0.0 4.8 0.00 0.43 0.36 75 1013.4
20260507140218 12 15 0.0 4.8 0.00 0.43 0.36 77 1013.3
20260507135719 12 22 1.6 4.8 0.00 0.48 0.36 77 1013.3
20260507135220 12 36 1.6 4.8 0.00 0.51 0.36 76 1013.3
20260507134720 12 29 0.0 3.2 0.00 0.53 0.36 76 1013.3
20260507134219 12 5 0.0 9.7 0.00 0.53 0.36 78 1013.4
20260507133719 12 29 1.6 9.7 0.00 0.53 0.36 77 1013.4
20260507133218 12 5 1.6 9.7 0.00 0.53 0.36 77 1013.3
20260507132717 12 325 1.6 9.7 0.00 0.53 0.36 78 1013.2
20260507132215 12 0 1.6 8.0 0.00 0.53 0.36 77 1013.2
20260507131715 12 350 1.6 8.0 0.00 0.53 0.36 80 1013.3
20260507131214 12 355 1.6 9.7 0.00 0.56 0.36 81 1013.1
20260507130713 12 40 1.6 9.7 0.00 0.56 0.36 82 1013.2
20260507130211 12 351 1.6 9.7 0.00 0.58 0.36 82 1013.0
20260507125706 12 35 1.6 9.7 0.00 0.61 0.36 81 1013.0
20260507125431 12 350 1.6 4.8 0.00 0.64 0.36 84 1013.0
20260507124700 12 16 1.6 6.4 0.00 0.64 0.36 83 1013.0
20260507124159 12 343 1.6 6.4 0.00 0.66 0.36 82 1013.2
20260507123700 12 9 1.6 8.0 0.00 0.66 0.36 82 1013.2
20260507123415 12 13 1.6 8.0 0.00 0.69 0.36 82 1013.1
20260507122654 12 355 1.6 8.0 0.00 0.69 0.36 82 1013.0
20260507122154 12 38 1.6 8.0 0.00 0.71 0.36 83 1012.8
20260507121653 12 69 1.6 6.4 0.00 0.71 0.36 82 1012.9
20260507121152 12 26 1.6 6.4 0.00 0.71 0.36 82 1012.8
20260507120651 12 37 1.6 6.4 0.00 0.71 0.36 82 1012.7
20260507120148 12 346 1.6 6.4 0.00 0.71 0.36 82 1012.6
20260507115649 12 16 1.6 6.4 0.00 0.71 0.36 83 1012.4
20260507115405 12 11 1.6 6.4 0.00 0.71 0.36 84 1012.2
20260507114651 12 0 1.6 6.4 0.00 0.71 0.36 85 1012.5
20260507114142 12 355 1.6 4.8 0.00 0.71 0.36 85 1012.6
20260507113642 12 325 0.0 6.4 0.00 0.71 0.36 86 1012.6
20260507113146 12 321 0.0 6.4 0.00 0.71 0.36 86 1012.4
20260507112641 12 355 1.6 6.4 0.00 0.71 0.36 86 1012.4
20260507112407 11 342 1.6 6.4 0.00 0.71 0.36 85 1012.5
20260507111640 11 42 0.0 4.8 0.00 0.71 0.36 86 1012.2
20260507111138 11 5 0.0 3.2 0.00 0.71 0.36 86 1012.0
20260507110857 11 355 0.0 3.2 0.00 0.71 0.36 86 1011.9
20260507110137 11 36 0.0 4.8 0.00 0.71 0.36 87 1012.0
20260507105636 11 319 0.0 4.8 0.00 0.71 0.36 87 1012.1
20260507105137 11 5 1.6 4.8 0.00 0.71 0.36 87 1012.4
20260507104640 11 346 1.6 4.8 0.00 0.71 0.36 87 1012.6
20260507104351 11 15 0.0 3.2 0.00 0.71 0.36 87 1012.4
20260507103634 11 305 0.0 3.2 0.00 0.71 0.36 87 1012.3
20260507103133 11 310 0.0 4.8 0.00 0.71 0.36 88 1012.2
20260507102628 11 43 0.0 4.8 0.00 0.71 0.36 88 1011.9
20260507102346 11 355 0.0 3.2 0.00 0.71 0.36 88 1011.9
20260507101628 11 94 0.0 3.2 0.00 0.71 0.36 88 1012.2
20260507101126 11 96 0.0 3.2 0.00 0.71 0.36 88 1012.0
20260507100626 11 36 0.0 3.2 0.00 0.71 0.36 88 1012.0
20260507100126 11 20 0.0 3.2 0.00 0.71 0.36 88 1011.8
20260507095624 11 70 0.0 3.2 0.00 0.71 0.36 88 1011.8
20260507095124 11 51 0.0 3.2 0.00 0.71 0.36 89 1011.8
20260507095113 12 55 0.0 3.2 0.00 0.71 0.36 89 1011.9
20260507094122 12 84 0.0 3.2 0.00 0.71 0.36 89 1011.9
20260507093622 12 13 0.0 1.6 0.00 0.71 0.36 90 1012.2
20260507093121 12 22 0.0 4.8 0.00 0.71 0.36 89 1012.0
20260507092620 12 22 0.0 4.8 0.00 0.71 0.36 89 1012.0
20260507092120 12 355 0.0 4.8 0.00 0.71 0.36 89 1012.0
20260507091619 12 5 1.6 4.8 0.00 0.71 0.36 89 1011.9
20260507091118 12 37 0.0 4.8 0.00 0.71 0.36 90 1011.7
20260507090618 12 80 0.0 4.8 0.00 0.71 0.36 90 1011.7
20260507090122 12 83 0.0 4.8 0.00 0.71 0.36 90 1011.7
20260507085616 12 73 0.0 4.8 0.00 0.71 0.36 90 1011.5
20260507085116 12 40 0.0 4.8 0.00 0.71 0.36 90 1011.6
20260507084615 12 9 0.0 3.2 0.00 0.71 0.36 90 1011.5
20260507084110 12 16 0.0 3.2 0.00 0.71 0.36 90 1011.5
20260507083831 12 16 0.0 4.8 0.00 0.71 0.36 90 1011.5
20260507083109 12 34 0.0 4.8 0.00 0.71 0.36 90 1011.5
20260507082608 12 63 0.0 3.2 0.00 0.71 0.36 90 1011.7
20260507082108 12 15 0.0 3.2 0.00 0.71 0.36 90 1011.5
20260507081607 12 38 0.0 3.2 0.00 0.71 0.36 90 1011.6
20260507081104 12 347 0.0 3.2 0.00 0.71 0.36 90 1011.6
20260507080604 12 82 1.6 8.0 0.00 0.71 0.36 90 1011.5
20260507080103 12 17 1.6 8.0 0.03 0.71 0.36 90 1011.7
20260507075607 12 306 1.6 8.0 0.03 0.71 0.36 90 1011.7
20260507075101 12 316 1.6 8.0 0.03 0.71 0.36 90 1011.4
20260507074613 12 12 1.6 6.4 0.03 0.71 0.36 91 1011.1
20260507074100 12 9 1.6 9.7 0.03 0.71 0.36 91 1010.9
20260507073600 12 304 1.6 9.7 0.03 0.71 0.36 91 1011.3
20260507073059 12 336 3.2 9.7 0.03 0.71 0.36 90 1011.0
20260507072556 12 351 1.6 9.7 0.03 0.71 0.36 90 1011.1
20260507072315 13 324 1.6 9.7 0.03 0.71 0.36 90 1011.1
20260507071559 13 51 1.6 6.4 0.03 0.71 0.36 90 1010.5
20260507071054 13 84 1.6 6.4 0.03 0.71 0.36 91 1010.8
20260507070604 13 41 1.6 6.4 0.03 0.71 0.36 91 1010.8
20260507070310 13 17 1.6 8.0 0.00 0.69 0.33 91 1011.0
20260507065548 13 350 3.2 8.0 0.00 0.69 0.33 91 1011.0
20260507065058 13 9 3.2 9.7 0.00 0.69 0.33 91 1010.9
20260507064546 13 299 3.2 9.7 0.00 0.69 0.33 91 1011.0
20260507064046 13 25 3.2 17.7 0.00 0.69 0.33 91 1011.0
20260507063552 13 28 3.2 17.7 0.00 0.69 0.33 91 1011.0
20260507063046 14 59 3.2 16.1 0.00 0.69 0.33 92 1011.0
20260507062546 14 15 3.2 8.0 0.00 0.69 0.33 92 1011.0
20260507062046 14 319 3.2 12.9 0.03 0.69 0.33 92 1011.0
20260507061545 14 62 1.6 12.9 0.03 0.69 0.33 92 1010.8
20260507061044 14 304 3.2 12.9 0.03 0.69 0.33 93 1011.2
20260507060544 14 343 4.8 12.9 0.05 0.69 0.33 93 1011.1
20260507060044 14 308 3.2 12.9 0.05 0.69 0.33 93 1011.0
20260507055543 14 350 3.2 9.7 0.05 0.69 0.33 93 1010.9
20260507055038 14 355 3.2 8.0 0.08 0.69 0.33 93 1010.8
20260507054549 14 321 4.8 9.7 0.08 0.69 0.33 93 1010.3
20260507054043 14 335 3.2 9.7 0.08 0.69 0.33 92 1009.9
20260507053541 14 314 1.6 6.4 0.08 0.69 0.33 92 1009.4
20260507053035 14 62 1.6 6.4 0.08 0.69 0.33 92 1009.2
20260507052535 14 22 1.6 6.4 0.08 0.69 0.33 93 1009.3
20260507052034 15 22 1.6 6.4 0.13 0.66 0.30 93 1009.4
20260507051541 15 109 1.6 6.4 0.18 0.66 0.30 92 1009.6
20260507051035 15 91 1.6 9.7 0.20 0.66 0.30 92 1010.0
20260507050534 15 336 1.6 9.7 0.20 0.64 0.28 91 1010.8
20260507050253 15 355 1.6 14.5 0.25 0.64 0.28 91 1011.0
20260507045535 15 22 3.2 14.5 0.30 0.64 0.28 91 1010.9
20260507045035 15 329 3.2 14.5 0.28 0.61 0.25 90 1011.0
20260507044535 15 9 4.8 14.5 0.28 0.61 0.25 90 1010.9
20260507044303 15 327 4.8 14.5 0.28 0.61 0.25 92 1010.9
20260507043534 16 351 3.2 11.3 0.28 0.61 0.25 92 1010.9
20260507043035 16 335 4.8 11.3 0.28 0.61 0.25 92 1010.1
20260507042534 16 47 6.4 12.9 0.28 0.61 0.25 91 1010.2
20260507042035 16 292 6.4 16.1 0.20 0.53 0.23 91 1010.6
20260507041535 16 341 4.8 16.1 0.15 0.48 0.15 91 1010.6
20260507041034 17 329 4.8 20.9 0.13 0.46 0.13 91 1010.3
20260507040756 17 41 4.8 20.9 0.10 0.43 0.08 91 1010.4
20260507040259 17 43 3.2 11.3 0.05 0.38 0.03 92 1010.4
20260507035526 17 233 1.6 4.8 0.00 0.33 0.33 92 1010.2
20260507035024 17 355 0.0 3.2 0.00 0.33 0.33 92 1010.3
20260507034525 17 355 0.0 3.2 0.00 0.33 0.33 92 1010.3
20260507034240 17 355 0.0 3.2 0.00 0.33 0.33 92 1010.2
20260507033528 16 355 0.0 3.2 0.00 0.33 0.33 92 1010.0
20260507033022 16 355 0.0 3.2 0.00 0.33 0.33 92 1009.8
20260507032533 17 355 0.0 3.2 0.00 0.33 0.33 91 1009.7
20260507032241 17 355 0.0 3.2 0.00 0.33 0.33 91 1009.7
20260507031520 17 355 0.0 3.2 0.00 0.33 0.33 91 1009.7
20260507031019 17 355 1.6 3.2 0.00 0.33 0.33 91 1009.7
20260507030514 17 355 1.6 3.2 0.00 0.33 0.33 90 1009.8
20260507030239 17 111 0.0 3.2 0.00 0.33 0.33 91 1009.7
20260507025514 17 18 0.0 0.0 0.00 0.33 0.33 91 1009.9
20260507025012 17 18 0.0 0.0 0.00 0.33 0.33 91 1009.9
20260507024512 17 18 0.0 0.0 0.00 0.33 0.33 91 1009.8
20260507024011 16 18 0.0 1.6 0.00 0.33 0.33 91 1009.9
20260507023735 16 18 0.0 1.6 0.00 0.33 0.33 91 1009.8
20260507023010 17 18 0.0 3.2 0.00 0.33 0.33 90 1009.8
20260507022521 17 18 0.0 3.2 0.00 0.33 0.33 90 1009.7
20260507022008 17 94 0.0 3.2 0.00 0.33 0.33 90 1009.5
20260507021734 17 94 1.6 3.2 0.00 0.33 0.33 88 1009.3
20260507021008 17 94 1.6 3.2 0.00 0.33 0.33 88 1009.0
20260507020506 17 94 3.2 4.8 0.00 0.33 0.33 88 1008.9
20260507020006 17 98 3.2 4.8 0.00 0.33 0.33 88 1008.9
20260507015506 17 96 1.6 4.8 0.00 0.33 0.33 87 1009.0
20260507015004 18 95 1.6 3.2 0.00 0.33 0.33 86 1009.3
20260507014503 18 49 0.0 3.2 0.00 0.33 0.33 85 1009.4
20260507014015 18 340 1.6 3.2 0.00 0.33 0.33 85 1009.4
20260507013502 18 340 1.6 3.2 0.00 0.33 0.33 84 1009.5
20260507013002 18 346 1.6 3.2 0.00 0.33 0.33 84 1009.5
20260507012951 18 273 0.0 3.2 0.00 0.33 0.33 84 1009.4
20260507011959 19 273 0.0 3.2 0.00 0.33 0.33 82 1009.3
20260507011500 19 273 0.0 4.8 0.00 0.33 0.33 81 1009.4
20260507011000 19 267 1.6 4.8 0.00 0.33 0.33 81 1009.4
20260507010721 19 240 1.6 4.8 0.00 0.33 0.33 81 1009.5
20260507005958 19 232 1.6 8.0 0.00 0.33 0.33 81 1009.5
20260507005503 19 205 1.6 8.0 0.00 0.33 0.33 80 1009.3
20260507004956 19 217 1.6 8.0 0.00 0.33 0.33 80 1009.2
20260507004456 19 187 3.2 8.0 0.00 0.33 0.33 80 1009.3
20260507003954 19 211 3.2 8.0 0.00 0.33 0.33 80 1009.3
20260507003454 20 204 3.2 11.3 0.00 0.33 0.33 80 1009.1
20260507002953 20 182 3.2 11.3 0.00 0.33 0.33 79 1009.0
20260507002451 20 209 4.8 11.3 0.00 0.33 0.33 79 1009.0
20260507002428 20 210 4.8 11.3 0.00 0.33 0.33 79 1008.9
20260507001448 20 198 4.8 12.9 0.00 0.33 0.33 79 1008.8
20260507001214 20 182 4.8 12.9 0.00 0.33 0.33 78 1008.8
20260507000442 20 211 3.2 9.7 0.00 0.33 0.33 78 1009.0
20260506235940 20 193 3.2 8.0 0.00 0.33 0.33 78 1009.0
20260506235439 20 198 4.8 14.5 0.00 0.33 0.33 78 1008.9
20260506234937 20 200 6.4 14.5 0.00 0.33 0.33 77 1009.0
20260506234437 20 205 6.4 12.9 0.00 0.33 0.33 77 1009.0
20260506234200 21 187 6.4 12.9 0.00 0.33 0.33 76 1008.9
20260506233438 21 221 6.4 12.9 0.00 0.33 0.33 76 1009.0
20260506232938 21 224 6.4 12.9 0.00 0.33 0.33 75 1008.8
20260506232438 21 210 4.8 11.3 0.00 0.33 0.33 75 1008.6
20260506231936 21 198 4.8 14.5 0.00 0.33 0.33 75 1008.4
20260506231436 21 173 6.4 14.5 0.00 0.33 0.33 76 1008.4
20260506231155 21 175 6.4 14.5 0.00 0.33 0.33 75 1008.2
20260506230435 21 159 6.4 14.5 0.00 0.33 0.33 76 1008.5
20260506225933 21 207 6.4 17.7 0.00 0.33 0.33 76 1008.6
20260506225921 21 227 8.0 17.7 0.00 0.33 0.33 75 1008.7
20260506224927 21 209 8.0 16.1 0.00 0.33 0.33 74 1008.6
20260506224423 21 192 8.0 16.1 0.00 0.33 0.33 74 1008.6
20260506223923 21 149 8.0 19.3 0.00 0.33 0.33 74 1008.5
20260506223423 21 217 8.0 19.3 0.00 0.33 0.33 74 1008.6
20260506222923 21 198 9.7 19.3 0.00 0.33 0.33 74 1008.6
20260506222647 21 217 11.3 24.1 0.00 0.33 0.33 73 1008.6
20260506221923 21 202 11.3 24.1 0.00 0.33 0.33 73 1008.7
20260506221424 21 196 12.9 24.1 0.00 0.33 0.33 73 1008.7
20260506220923 21 202 12.9 24.1 0.00 0.33 0.33 72 1008.6
20260506220424 21 195 11.3 20.9 0.00 0.33 0.33 73 1008.6
20260506215924 22 246 11.3 20.9 0.00 0.33 0.33 72 1008.5
20260506215424 22 169 11.3 29.0 0.00 0.33 0.33 72 1008.5
20260506214923 21 217 11.3 29.0 0.00 0.33 0.33 74 1008.6
20260506214424 21 221 14.5 29.0 0.00 0.33 0.33 73 1008.4
20260506213924 21 164 14.5 30.6 0.00 0.33 0.33 72 1008.3
20260506213423 21 196 12.9 30.6 0.00 0.33 0.33 72 1008.3
20260506213408 21 211 12.9 29.0 0.00 0.33 0.33 72 1008.4
20260506212424 21 209 12.9 29.0 0.00 0.33 0.33 72 1008.4
20260506211924 21 233 12.9 29.0 0.00 0.33 0.33 72 1008.5
20260506211424 21 229 9.7 24.1 0.00 0.33 0.33 73 1008.5
20260506210920 21 222 9.7 24.1 0.00 0.33 0.33 74 1008.5
20260506210417 21 205 8.0 24.1 0.00 0.33 0.33 73 1008.5
20260506205913 21 241 8.0 24.1 0.00 0.33 0.33 74 1008.5
20260506205414 21 242 9.7 24.1 0.00 0.33 0.33 74 1008.4
20260506204913 21 208 8.0 25.7 0.00 0.33 0.33 75 1008.4
20260506204414 21 229 9.7 25.7 0.00 0.33 0.33 74 1008.4
20260506203917 21 213 12.9 25.7 0.00 0.33 0.33 75 1008.4
20260506203411 21 238 11.3 25.7 0.00 0.33 0.33 73 1008.4
20260506203356 21 198 9.7 20.9 0.00 0.33 0.33 74 1008.5
20260506202411 21 217 9.7 35.4 0.00 0.33 0.33 74 1008.5
20260506201907 20 219 11.3 35.4 0.00 0.33 0.33 77 1008.5
20260506201408 20 211 14.5 37.0 0.00 0.33 0.33 75 1008.4
20260506201345 20 228 12.9 37.0 0.00 0.33 0.33 75 1008.6
20260506200624 20 272 9.7 27.4 0.00 0.33 0.33 76 1008.7
20260506195859 20 224 9.7 16.1 0.00 0.33 0.33 75 1008.5
20260506195359 20 175 11.3 27.4 0.00 0.33 0.33 77 1008.6
20260506194858 20 205 11.3 27.4 0.00 0.33 0.33 76 1008.5
20260506194353 20 240 11.3 20.9 0.00 0.33 0.33 77 1008.5
20260506193854 20 214 9.7 20.9 0.00 0.33 0.33 78 1008.5
20260506193612 20 198 8.0 16.1 0.00 0.33 0.33 78 1008.6
20260506192847 19 234 8.0 19.3 0.00 0.33 0.33 79 1008.7
20260506192614 19 220 9.7 19.3 0.00 0.33 0.33 80 1008.6
20260506192109 19 169 9.7 17.7 0.00 0.33 0.33 80 1008.8
20260506191346 19 183 9.7 17.7 0.00 0.33 0.33 80 1009.1
20260506190845 19 180 9.7 17.7 0.00 0.33 0.33 80 1009.0
20260506190344 19 167 9.7 17.7 0.00 0.33 0.33 80 1009.2
20260506185842 19 235 9.7 17.7 0.00 0.33 0.33 80 1009.1
20260506185339 19 199 9.7 25.7 0.00 0.33 0.33 80 1009.1
20260506184839 19 235 11.3 19.3 0.00 0.33 0.33 79 1009.4
20260506184337 19 212 11.3 25.7 0.00 0.33 0.33 80 1009.4
20260506184052 19 221 11.3 25.7 0.00 0.33 0.33 80 1009.4
20260506183341 19 243 9.7 19.3 0.00 0.33 0.33 80 1009.8
20260506183315 19 217 8.0 29.0 0.00 0.33 0.33 81 1009.6
20260506182608 19 212 11.3 29.0 0.00 0.33 0.33 80 1009.5
20260506181835 18 168 12.9 29.0 0.00 0.33 0.33 80 1009.6
20260506181333 19 181 11.3 29.0 0.00 0.33 0.33 80 1009.5
20260506180833 19 173 11.3 22.5 0.00 0.33 0.33 80 1009.7
20260506180333 18 234 9.7 22.5 0.00 0.33 0.33 80 1009.7
20260506175831 18 234 8.0 20.9 0.00 0.33 0.33 82 1009.7
20260506175331 18 236 8.0 17.7 0.00 0.33 0.33 82 1009.7
20260506174836 18 144 6.4 20.9 0.00 0.33 0.33 82 1009.4
20260506174328 18 229 8.0 20.9 0.00 0.33 0.33 81 1009.5
20260506174101 18 219 9.7 19.3 0.00 0.33 0.33 81 1009.5
20260506173328 18 197 11.3 19.3 0.00 0.33 0.33 82 1009.7
20260506173048 18 193 8.0 19.3 0.00 0.33 0.33 82 1009.8
20260506172327 18 157 9.7 19.3 0.00 0.33 0.33 82 1010.0
20260506171827 18 213 9.7 19.3 0.00 0.33 0.33 82 1009.8
20260506171325 18 190 8.0 19.3 0.00 0.33 0.33 83 1009.8
20260506170825 18 213 8.0 19.3 0.00 0.33 0.33 83 1010.0
20260506170330 18 207 8.0 19.3 0.00 0.33 0.33 84 1009.9
20260506165822 17 215 6.4 17.7 0.00 0.33 0.33 84 1010.1
20260506165322 17 178 8.0 17.7 0.00 0.33 0.33 84 1010.0
20260506164823 17 221 9.7 22.5 0.00 0.33 0.33 84 1010.0
20260506164321 17 162 8.0 22.5 0.00 0.33 0.33 84 1010.1
20260506163821 17 138 8.0 22.5 0.00 0.33 0.33 84 1010.0
20260506163320 17 182 11.3 22.5 0.00 0.33 0.33 85 1010.3
20260506162818 17 198 9.7 22.5 0.00 0.33 0.33 85 1010.4